SCOUT X-4 DEB

Satellite information

Favourite Embed

Satellite Type and Status

DEBRISIN ORBIT

Key statistics

Satellite SCOUT X-4 DEB at a glance.

Uptime

22313

Days in orbit

Revolutions

≈ 14.1

Per day

Orbit

SSO

Sun Synchronous Orbit

Inclination

90.5

Latest

Satellite identification and parameters

Extended collection of information and parameters for SCOUT X-4 DEB.

Object identification

Identified? True

Debris? True

Object name: SCOUT X-4 DEB

International designator: 1964-026E

Object number (NORAD): 2986

Object ID (CCSDS): 2986

Country: UNITED STATES OF AMERICA (US)

Current information (Y/N): Y

RCS size: SMALL

Orbital parameters

Period: 102.393 minutes

Inclination: 90.4711 deg

SMA: 7250.034 km

Apoapsis: 903.873 km

Periapsis: 839.925 km

RAAN: 174.1063 deg

Eccentricy: 0.0044102

Argument of periapsis: 242.2609 deg

Mean anomaly: 117.4097 deg

Mean motion: 14.0634775 rev/day

Mean motion (dot): 0.00000304 rev/day2

B* drag term: 0.0001775 1/REarth

Two-line elements (TLE)

Creation date: July 6, 2025, 10:26 p.m.

Reference frame: TEME

Reference center: EARTH

Epoch: July 6, 2025, 9:26 p.m. UTC

TLE line 0: 0 SCOUT X-4 DEB

TLE line 1: 1 2986U 64026E 25187.89334211 .00000304 00000-0 17750-3 0 9997

TLE line 2: 2 2986 90.4711 174.1063 0044102 242.2609 117.4097 14.06347750126338

Live tracking on map

Real-time ground track for satellite SCOUT X-4 DEB.

In-orbit conjunctions

A list of the most updated potential collisions computed for object SCOUT X-4 DEB.

Target Orbit TCA Probability of collision Miss distance Type
CZ-6A DEB LEO 2024-11-16 04:04:56 0.0005432793 270.0 (m) DEBRIS
CZ-6A DEB LEO 2024-11-09 23:04:43 0.0007438606 241.0 (m) DEBRIS
FENGYUN 1C DEB SSO 2024-10-24 08:40:01 0.000843003 55.0 (m) DEBRIS

Associated space launch

The KH-4A (Keyhole-4A) was the fifth optical reconnaissance satellite version in the Corona-program.

SCOUT X-4 DEB was lifted into orbit during the mission ‘Thor SLV-2A Agena D | KH-4A 6’, on board a Thor SLV-2A Agena D space rocket.

The launch took place on June 4, 1964, 10:59 p.m. from Space Launch Complex 3W.

For more information about the launch, click the button.

Launch to space Thor SLV-2A Agena D | KH-4A 6
Thor SLV-2A Agena D | KH-4A 6

Agency: N/A

Status: Launch Successful

Launch date: June 4, 1964, 10:59 p.m. UTC

Rocket: Thor SLV-2A Agena D

Launch pad: Space Launch Complex 3W

Location: Vandenberg SFB, CA, USA

...

Latest news about this satellite

There are no fresh news available about this satellite. Check back as we update our databases every day.


Newsletter sign-up

Weekly statistics, charts and insights to help you stay on top of the space industry.